[[{"header":{"parameterUnit":"m.s-1","parameterCategory":1,"la1":30.2991,"la2":30.254,"lo1":-89.0895,"lo2":-89.0444,"dy":0.0017,"dx":0.0017,"nx":28,"ny":28,"refTime":"2024-04-18T21:00:00:Z","depth":0,"parameterNumber":2,"parameterNumberName":"U-component_of_WINDS"},"data":[0,0,0,0,0,0,0,0,0,0,0,0,0,0,0,0,0,0,0,0,0,0,0,0,0,0,0,0,0,0,0,0,0,0,0,0,0,0,0,0,0,0,0,0,0,0,0,0,0,0,0,0,0,0,0,0,0,0,1.1855,1.1856,0,1.1924,1.1925,1.1926,1.1954,1.1954,1.1954,1.1954,1.2026,1.2028,1.203,0,0,0,0,0,0,0,0,0,0,0,0,0,1.1749,1.1751,1.1855,1.1856,1.1857,1.1924,1.1925,1.1926,1.1954,1.1954,1.1954,1.1954,1.2025,1.2027,1.203,0,0,0,0,0,0,0,0,0,0,0,0,0,1.1804,1.1752,1.1855,1.1879,1.1882,1.1924,1.1925,1.1926,1.1954,1.1954,1.1954,1.1954,1.2024,1.2027,1.203,1.2053,0,0,1.204,1.2041,0,0,0,0,0,0,0,0,1.1801,1.1808,1.1874,1.1877,1.1881,1.193,1.1914,1.1969,1.1954,1.1927,1.1954,1.1954,1.1994,1.2,1.2013,1.2057,1.206,1.204,1.2042,1.2043,1.2044,0,0,0,0,0,0,0,1.1797,1.1805,1.1882,1.1875,1.1879,1.1887,1.1894,1.1924,1.1961,1.1929,1.1931,1.1939,1.1996,1.201,1.2015,1.2061,1.204,1.2042,1.2044,1.2046,1.2129,1.2129,0,0,0,0,0,0,1.1789,1.1802,1.188,1.1884,1.184,1.1889,1.1897,1.1915,1.1961,1.1967,1.1939,1.194,1.2005,1.2011,1.2018,1.2049,1.2043,1.2046,1.2048,1.2128,1.2129,1.2129,0,0,0,0,0,0,1.1787,1.1796,1.1877,1.1844,1.1855,1.1891,1.191,1.1916,1.193,1.1968,1.1975,1.1947,1.2005,1.2013,1.2045,1.2052,1.2047,1.205,1.2128,1.2128,1.2129,1.2111,0,0,0,0,0,0,1.1784,1.1795,1.1804,1.1844,1.1856,1.1902,1.191,1.1918,1.1935,1.1937,1.1977,1.1984,1.2006,1.204,1.2048,1.2056,1.2052,1.2127,1.2128,1.2129,1.2111,1.2111,1.2111,0,0,0,0,0,1.178,1.1796,1.1804,1.1813,1.1868,1.1903,1.191,1.1934,1.1936,1.1945,1.197,1.1983,1.205,1.2043,1.2052,1.2061,1.2127,1.2128,1.2129,1.2111,1.2111,1.2111,0,0,0,0,0,0,1.1755,1.1801,1.1811,1.184,1.1867,1.1907,1.192,1.1933,1.196,1.1961,1.1991,1.1999,1.2028,1.2048,1.2039,1.2087,1.2089,1.2092,1.2073,1.2073,1.2073,1.2068,1.2055,0,0,0,0,0,1.1753,1.1777,1.1816,1.1838,1.1852,1.1883,1.1899,1.1916,1.1945,1.1957,1.1984,1.2012,1.204,1.2057,1.2085,1.2114,1.2124,1.2125,1.2125,1.2124,1.2126,1.2145,1.2146,1.2132,1.2132,1.2132,0,0,1.1749,1.1778,1.1791,1.1834,1.1857,1.1882,1.1893,1.1918,1.1937,1.1961,1.1992,1.2013,1.2047,1.2077,1.2092,1.2094,1.2132,1.2125,1.2125,1.2127,1.2146,1.2147,1.2148,1.2132,1.2132,1.2132,0,0,1.1755,1.1778,1.18,1.1823,1.1858,1.1879,1.1884,1.1923,1.1937,1.1969,1.1988,1.2011,1.2058,1.2081,1.21,1.2116,1.2129,1.2124,1.2123,1.214,1.2141,1.2142,1.2149,1.2151,1.2126,1.2126,1.2125,0,1.1746,1.1784,1.1809,1.1834,1.1853,1.1876,1.1898,1.192,1.1962,1.1974,1.1976,1.2036,1.2061,1.2098,1.2102,1.2115,1.2123,1.2119,1.2139,1.214,1.2142,1.2148,1.2151,1.2125,1.2125,1.2125,1.2125,0,1.1771,1.1797,1.1811,1.1851,1.1871,1.1895,1.1925,1.1942,1.1957,1.1979,1.2012,1.2042,1.2076,1.2086,1.2101,1.2125,1.2126,1.2133,1.2136,1.2142,1.2149,1.2151,1.2124,1.2124,1.2124,1.2124,0,0,1.1763,1.1818,1.1822,1.1841,1.1882,1.1903,1.1928,1.1962,1.1977,1.2005,1.2028,1.2067,1.2074,1.2095,1.2113,1.2128,1.214,1.2133,1.2134,1.2134,1.217,1.2165,1.2168,1.2148,1.2149,1.2149,1.2168,0,1.1775,1.182,1.1845,1.188,1.1905,1.1928,1.195,1.1978,1.1998,1.2023,1.2046,1.2074,1.2081,1.2094,1.2109,1.2135,1.2147,1.2134,1.217,1.2171,1.2162,1.2171,1.2166,1.2181,1.217,1.2171,1.2171,0,1.1794,1.1823,1.1861,1.19,1.1912,1.1931,1.1964,1.1987,1.202,1.2034,1.2057,1.2075,1.2103,1.2104,1.2144,1.2134,1.2151,1.2166,1.2167,1.2172,1.2172,1.2177,1.2187,1.219,1.2176,1.2175,1.2175,0,1.1785,1.1833,1.1863,1.1879,1.1924,1.1938,1.1958,1.199,1.2009,1.2038,1.2051,1.2083,1.2101,1.2126,1.2152,1.215,1.219,1.2193,1.2203,1.2203,1.2211,1.221,1.2225,1.222,1.222,1.222,1.222,0,1.1796,1.1819,1.186,1.1878,1.1905,1.1933,1.1958,1.198,1.2009,1.2032,1.2053,1.2075,1.2108,1.2134,1.2154,1.2185,1.2192,1.2205,1.2211,1.2204,1.2202,1.2216,1.2215,1.2221,1.2221,1.2221,1.2221,0,1.1791,1.1819,1.1853,1.1894,1.1905,1.1923,1.1958,1.1977,1.1999,1.2029,1.2037,1.2072,1.2104,1.2133,1.2174,1.2188,1.222,1.2226,1.2209,1.2212,1.2221,1.222,1.2245,1.225,1.2241,1.2241,1.2242,0,1.1796,1.1815,1.1858,1.1875,1.1895,1.1922,1.1942,1.1971,1.1991,1.2029,1.2044,1.2077,1.2105,1.2155,1.2185,1.2217,1.2225,1.2231,1.223,1.2223,1.2226,1.2225,1.2227,1.2231,1.2231,1.2231,1.2231,0,1.1803,1.1817,1.1844,1.1878,1.1901,1.1928,1.1956,1.1969,1.2003,1.2025,1.2058,1.2079,1.2123,1.2156,1.2192,1.2213,1.2228,1.2231,1.2236,1.2229,1.2219,1.2225,1.2209,1.2231,1.2231,1.2231,1.2231,1.2231,1.1804,1.1822,1.1856,1.1886,1.1911,1.1937,1.1957,1.1982,1.201,1.2047,1.2063,1.2096,1.2129,1.2179,1.22,1.2227,1.223,1.2236,1.2238,1.2239,1.2238,1.2214,1.2234,1.2234,1.2234,1.2234,1.2234,0,1.1813,1.1836,1.1864,1.1903,1.1927,1.1939,1.1972,1.1991,1.202,1.205,1.2078,1.2116,1.2148,1.2181,1.2215,1.2231,1.2239,1.2239,1.2238,1.2243,1.2233,1.2227,1.2232,1.2232,1.2232,1.2232,1.2232,1.2232,1.182,1.1851,1.1869,1.1913,1.1936,1.1969,1.1986,1.2011,1.2035,1.2077,1.2104,1.2125,1.2156,1.2193,1.2224,1.2232,1.2245,1.2243,1.2254,1.2244,1.2244,1.2244,1.2238,1.2245,1.2245,1.2262,1.2262,1.2262]},{"header":{"parameterUnit":"m.s-1","parameterCategory":1,"la1":30.2991,"la2":30.254,"lo1":-89.0895,"lo2":-89.0444,"dy":0.0017,"dx":0.0017,"nx":28,"ny":28,"refTime":"2024-04-18T21:00:00:Z","depth":0,"parameterNumber":3,"parameterNumberName":"V-component_of_WINDS"},"data":[0,0,0,0,0,0,0,0,0,0,0,0,0,0,0,0,0,0,0,0,0,0,0,0,0,0,0,0,0,0,0,0,0,0,0,0,0,0,0,0,0,0,0,0,0,0,0,0,0,0,0,0,0,0,0,0,0,0,2.7844,2.7845,0,2.7883,2.7884,2.7884,2.7913,2.7913,2.7913,2.7914,2.795,2.795,2.7951,0,0,0,0,0,0,0,0,0,0,0,0,0,2.7789,2.779,2.7844,2.7845,2.7845,2.7883,2.7884,2.7884,2.7913,2.7913,2.7914,2.7914,2.7949,2.795,2.7951,0,0,0,0,0,0,0,0,0,0,0,0,0,2.7819,2.7791,2.7844,2.7864,2.7866,2.7883,2.7884,2.7885,2.7913,2.7913,2.7914,2.7914,2.7949,2.795,2.7951,2.795,0,0,2.7954,2.7955,0,0,0,0,0,0,0,0,2.7818,2.7821,2.7861,2.7863,2.7865,2.7894,2.7878,2.7906,2.7913,2.7895,2.7914,2.7914,2.793,2.7933,2.7939,2.7952,2.7953,2.7955,2.7955,2.7956,2.7956,0,0,0,0,0,0,0,2.7815,2.782,2.786,2.7861,2.7864,2.787,2.7874,2.7883,2.791,2.7897,2.7899,2.7903,2.7932,2.7938,2.794,2.7954,2.7954,2.7955,2.7956,2.7957,2.7968,2.7967,0,0,0,0,0,0,2.7811,2.7818,2.7858,2.7861,2.7842,2.787,2.7876,2.7884,2.791,2.7914,2.7903,2.7904,2.7936,2.7939,2.7942,2.7943,2.7956,2.7957,2.7957,2.7968,2.7968,2.7967,0,0,0,0,0,0,2.781,2.7814,2.7857,2.784,2.7846,2.7871,2.788,2.7885,2.7892,2.7915,2.7919,2.7905,2.7937,2.794,2.7948,2.7944,2.7957,2.7958,2.7968,2.7968,2.7967,2.7945,0,0,0,0,0,0,2.7808,2.7814,2.7814,2.784,2.7847,2.7864,2.788,2.7885,2.7894,2.7896,2.7918,2.7922,2.7937,2.7947,2.7949,2.7946,2.7959,2.7969,2.7968,2.7968,2.7946,2.7943,2.7941,0,0,0,0,0,2.7806,2.7805,2.7814,2.7819,2.7848,2.7863,2.7867,2.7886,2.7893,2.7894,2.7909,2.7921,2.7944,2.7947,2.795,2.7948,2.7969,2.7968,2.7968,2.7947,2.7944,2.7941,0,0,0,0,0,0,2.7777,2.7809,2.7819,2.7827,2.7843,2.7868,2.7869,2.7882,2.7895,2.7896,2.7918,2.7922,2.7928,2.7938,2.7941,2.7948,2.7958,2.7958,2.7941,2.7939,2.7936,2.7934,2.796,0,0,0,0,0,2.7772,2.7783,2.781,2.7814,2.7821,2.7844,2.7851,2.7865,2.7881,2.7887,2.7902,2.7916,2.7927,2.7933,2.7944,2.7947,2.7952,2.7947,2.7945,2.7943,2.7942,2.7945,2.7943,2.7965,2.7965,2.7965,0,0,2.7761,2.778,2.7785,2.7809,2.7822,2.7832,2.7849,2.7858,2.7866,2.7888,2.7897,2.7909,2.7926,2.7931,2.7935,2.794,2.7937,2.7942,2.794,2.7941,2.7944,2.7942,2.794,2.7964,2.7964,2.7964,0,0,2.7746,2.7761,2.7767,2.7781,2.7802,2.7817,2.7818,2.7842,2.7851,2.7861,2.7878,2.7886,2.7903,2.7915,2.7923,2.7913,2.7925,2.7916,2.7904,2.7906,2.7905,2.7903,2.79,2.7898,2.7915,2.7915,2.7915,0,2.7729,2.7746,2.7768,2.7777,2.7787,2.7809,2.7814,2.7826,2.7848,2.7854,2.786,2.7883,2.7896,2.7905,2.7903,2.7908,2.791,2.7914,2.7903,2.7902,2.7901,2.7898,2.7897,2.7914,2.7914,2.7914,2.7914,0,2.7725,2.7736,2.7738,2.7761,2.7771,2.7778,2.78,2.7807,2.7819,2.7833,2.7843,2.7859,2.7874,2.7877,2.7888,2.7887,2.789,2.79,2.791,2.7898,2.7895,2.7894,2.7912,2.7913,2.7913,2.7913,0,0,2.7692,2.7729,2.7729,2.774,2.7765,2.7773,2.7781,2.7797,2.7803,2.7817,2.7824,2.7838,2.7848,2.7857,2.787,2.7872,2.7863,2.7881,2.7882,2.7877,2.7863,2.7856,2.7855,2.7871,2.7871,2.7871,2.7862,0,2.7681,2.7699,2.7719,2.7728,2.7739,2.776,2.7766,2.7782,2.7795,2.7805,2.7819,2.7829,2.784,2.7846,2.7849,2.7864,2.7861,2.7864,2.7877,2.7877,2.7872,2.7854,2.7846,2.7837,2.7861,2.7861,2.7861,0,2.7671,2.7687,2.7698,2.7723,2.7728,2.7734,2.775,2.776,2.7777,2.7787,2.7797,2.7812,2.782,2.7829,2.784,2.7842,2.7848,2.7856,2.7856,2.7858,2.7868,2.7855,2.7835,2.7833,2.7859,2.786,2.786,0,2.7647,2.7671,2.7681,2.769,2.7718,2.7722,2.7734,2.7752,2.776,2.7774,2.778,2.7794,2.7801,2.7811,2.7828,2.7834,2.7837,2.7848,2.7845,2.7845,2.7845,2.7845,2.7825,2.7848,2.7848,2.7848,2.7848,0,2.7633,2.7639,2.7671,2.7677,2.7684,2.7706,2.7712,2.7726,2.7741,2.775,2.7768,2.7775,2.7797,2.7806,2.782,2.7827,2.783,2.7837,2.7841,2.7836,2.7835,2.784,2.7842,2.7848,2.7848,2.7848,2.7848,0,2.7608,2.7629,2.7642,2.7668,2.7675,2.7679,2.7702,2.7708,2.7722,2.7732,2.7736,2.7758,2.777,2.7789,2.7805,2.7814,2.7819,2.7825,2.7814,2.7816,2.7812,2.7812,2.7796,2.7795,2.7817,2.7817,2.7817,0,2.7598,2.7603,2.7631,2.7639,2.7651,2.7663,2.7672,2.7694,2.7703,2.7723,2.7727,2.774,2.7753,2.777,2.7787,2.78,2.7806,2.78,2.7808,2.7803,2.7807,2.7806,2.7807,2.7797,2.7797,2.7797,2.7797,0,2.7578,2.7589,2.7602,2.762,2.7631,2.7646,2.7661,2.7665,2.769,2.7699,2.7712,2.7722,2.774,2.7753,2.7768,2.7779,2.7792,2.7794,2.7794,2.7789,2.7783,2.7787,2.7809,2.7794,2.7794,2.7795,2.7795,2.7795,2.756,2.7566,2.7588,2.7602,2.7616,2.763,2.7638,2.7654,2.7666,2.7684,2.7695,2.7708,2.7725,2.7747,2.7757,2.7767,2.7772,2.7772,2.7772,2.7772,2.777,2.7781,2.7769,2.7769,2.7769,2.777,2.777,0,2.7542,2.7557,2.757,2.7592,2.7603,2.7616,2.7633,2.7642,2.7653,2.7669,2.7681,2.7696,2.7709,2.7727,2.7741,2.7745,2.7752,2.7748,2.7748,2.7751,2.7764,2.7763,2.7743,2.7743,2.7743,2.7743,2.7743,2.7743,2.7534,2.7545,2.7558,2.7576,2.7591,2.7605,2.7614,2.7626,2.7639,2.7656,2.7668,2.768,2.7696,2.7712,2.7724,2.7729,2.7733,2.7728,2.7735,2.7747,2.775,2.7752,2.7751,2.7729,2.7729,2.7721,2.7721,2.7721]}]]